When you browse on this site, cookies collect data to enhance your experience and personalize the content and advertising you see.
Visit our Privacy Policy to learn more. By continuing to use the site, you agree to this use of cookies and data.
  • In Deutschland
  • Länderverzeichnis
  • Für 7 Tage
  • Wassertemperatur
  • Satellitenkarten
  • Wetterkarte
  • Widgets
  • user-avatar
    Anmelden

    Stündliche Wetter Shlobin

    Heute, 22 März, Freitag

    Zeit Temperatur Niederschläge Wind Luftdruck Luftfeuchtigkeit
    00:00 +3°C° 0.1 mm 3 m/S 755 mmHg 86%
    01:00 +3°C° 0.1 mm 4 m/S 755 mmHg 86%
    02:00 +4°C° 0 mm 3 m/S 754 mmHg 88%
    03:00 +4°C° 0.8 mm 4 m/S 753 mmHg 89%
    04:00 +5°C° 0.8 mm 5 m/S 753 mmHg 89%
    05:00 +4°C° 0.8 mm 6 m/S 752 mmHg 90%
    06:00 +5°C° 0.1 mm 6 m/S 752 mmHg 89%
    07:00 +5°C° 0.1 mm 6 m/S 752 mmHg 88%
    08:00 +7°C° 0 mm 6 m/S 751 mmHg 87%
    09:00 +6°C° 0.1 mm 7 m/S 751 mmHg 79%
    10:00 +7°C° 0.1 mm 8 m/S 751 mmHg 71%
    11:00 +7°C° 0.1 mm 8 m/S 752 mmHg 63%
    12:00 +7°C° 0 mm 9 m/S 752 mmHg 55%
    13:00 +7°C° 0 mm 9 m/S 752 mmHg 47%
    14:00 +8°C° 0 mm 9 m/S 752 mmHg 37%
    15:00 +7°C° 0 mm 8 m/S 752 mmHg 38%
    16:00 +6°C° 0 mm 8 m/S 753 mmHg 38%
    17:00 +5°C° 0 mm 7 m/S 753 mmHg 39%
    18:00 +4°C° 0 mm 7 m/S 754 mmHg 43%
    19:00 +3°C° 0 mm 6 m/S 754 mmHg 47%
    20:00 +2°C° 0 mm 5 m/S 754 mmHg 50%
    21:00 +1°C° 0 mm 5 m/S 754 mmHg 52%
    22:00 +1°C° 0 mm 5 m/S 755 mmHg 54%
    23:00 0°C° 0 mm 5 m/S 755 mmHg 56%

    Morgen, 23 März, Samstag

    Zeit Temperatur Niederschläge Wind Luftdruck Luftfeuchtigkeit
    00:00 0°C° 0 mm 5 m/S 755 mmHg 58%
    01:00 -1°C° 0 mm 5 m/S 755 mmHg 61%
    02:00 -1°C° 0 mm 5 m/S 755 mmHg 63%
    03:00 -2°C° 0 mm 5 m/S 755 mmHg 66%
    04:00 -2°C° 0 mm 5 m/S 756 mmHg 68%
    05:00 -2°C° 0 mm 5 m/S 756 mmHg 70%
    06:00 -2°C° 0 mm 5 m/S 756 mmHg 69%
    07:00 -2°C° 0 mm 6 m/S 756 mmHg 69%
    08:00 -2°C° 0 mm 6 m/S 756 mmHg 68%
    09:00 -1°C° 0 mm 6 m/S 756 mmHg 65%
    10:00 +1°C° 0 mm 6 m/S 756 mmHg 62%
    11:00 +2°C° 0 mm 5 m/S 756 mmHg 59%
    12:00 +3°C° 0 mm 5 m/S 756 mmHg 58%
    13:00 +5°C° 0 mm 4 m/S 756 mmHg 56%
    14:00 +5°C° 0 mm 4 m/S 756 mmHg 55%
    15:00 +5°C° 0 mm 4 m/S 756 mmHg 56%
    16:00 +5°C° 0 mm 3 m/S 756 mmHg 57%
    17:00 +6°C° 0 mm 2 m/S 755 mmHg 58%
    18:00 +5°C° 0 mm 2 m/S 756 mmHg 63%
    19:00 +5°C° 0 mm 1 m/S 756 mmHg 68%
    20:00 +2°C° 0 mm 0 m/S 756 mmHg 73%
    21:00 +3°C° 0 mm 1 m/S 756 mmHg 75%
    22:00 +3°C° 0 mm 1 m/S 755 mmHg 76%
    23:00 +3°C° 0 mm 1 m/S 755 mmHg 77%

    übermorgen, 24 März, Sonntag

    Zeit Temperatur Niederschläge Wind Luftdruck Luftfeuchtigkeit
    00:00 +1°C° 0 mm 2 m/S 755 mmHg 79%
    01:00 +1°C° 0 mm 2 m/S 754 mmHg 80%
    02:00 0°C° 0 mm 3 m/S 754 mmHg 81%
    03:00 0°C° 0 mm 3 m/S 753 mmHg 76%
    04:00 +1°C° 0 mm 3 m/S 753 mmHg 71%
    05:00 +2°C° 0 mm 3 m/S 752 mmHg 66%
    06:00 +2°C° 0.4 mm 3 m/S 752 mmHg 69%
    07:00 +2°C° 0.4 mm 3 m/S 752 mmHg 73%
    08:00 +2°C° 0.4 mm 3 m/S 751 mmHg 76%
    09:00 +4°C° 0 mm 4 m/S 751 mmHg 70%
    10:00 +5°C° 0 mm 4 m/S 751 mmHg 65%
    11:00 +7°C° 0 mm 5 m/S 751 mmHg 59%
    12:00 +8°C° 0 mm 5 m/S 751 mmHg 55%
    13:00 +8°C° 0 mm 5 m/S 751 mmHg 52%
    14:00 +8°C° 0 mm 5 m/S 751 mmHg 48%
    15:00 +8°C° 0 mm 4 m/S 750 mmHg 50%
    16:00 +7°C° 0 mm 4 m/S 750 mmHg 51%
    17:00 +8°C° 0 mm 3 m/S 750 mmHg 53%
    18:00 +7°C° 0 mm 3 m/S 750 mmHg 56%
    19:00 +6°C° 0 mm 2 m/S 750 mmHg 60%
    20:00 +5°C° 0 mm 2 m/S 751 mmHg 64%
    21:00 +4°C° 0 mm 2 m/S 750 mmHg 65%
    22:00 +4°C° 0 mm 2 m/S 750 mmHg 66%
    23:00 +3°C° 0 mm 2 m/S 750 mmHg 67%

    25 März, Montag

    Zeit Temperatur Niederschläge Wind Luftdruck Luftfeuchtigkeit
    00:00 +4°C° 0 mm 1 m/S 750 mmHg 68%
    01:00 +4°C° 0 mm 1 m/S 750 mmHg 69%
    02:00 +3°C° 0 mm 1 m/S 749 mmHg 71%
    03:00 +3°C° 0 mm 1 m/S 749 mmHg 72%
    04:00 +2°C° 0 mm 1 m/S 749 mmHg 73%
    05:00 +2°C° 0 mm 1 m/S 748 mmHg 75%
    06:00 +1°C° 0 mm 2 m/S 748 mmHg 72%
    07:00 +2°C° 0 mm 2 m/S 748 mmHg 69%
    08:00 +3°C° 0 mm 2 m/S 748 mmHg 66%
    09:00 +4°C° 0 mm 2 m/S 748 mmHg 59%
    10:00 +4°C° 0 mm 3 m/S 747 mmHg 52%
    11:00 +7°C° 0 mm 3 m/S 747 mmHg 45%
    12:00 +7°C° 0 mm 3 m/S 747 mmHg 42%
    13:00 +6°C° 0 mm 4 m/S 746 mmHg 39%
    14:00 +7°C° 0 mm 4 m/S 746 mmHg 36%
    15:00 +8°C° 0 mm 3 m/S 746 mmHg 38%
    16:00 +7°C° 0 mm 3 m/S 746 mmHg 41%
    17:00 +7°C° 0 mm 2 m/S 745 mmHg 43%
    18:00 +6°C° 0 mm 2 m/S 745 mmHg 48%
    19:00 +5°C° 0 mm 2 m/S 746 mmHg 53%
    20:00 +4°C° 0 mm 1 m/S 746 mmHg 58%
    21:00 +4°C° 0 mm 1 m/S 746 mmHg 61%
    22:00 +4°C° 0 mm 1 m/S 746 mmHg 64%
    23:00 +3°C° 0 mm 1 m/S 746 mmHg 67%

    26 März, Dienstag

    Zeit Temperatur Niederschläge Wind Luftdruck Luftfeuchtigkeit
    00:00 +3°C° 0 mm 1 m/S 746 mmHg 70%
    01:00 +3°C° 0 mm 1 m/S 746 mmHg 73%
    02:00 +3°C° 0 mm 1 m/S 747 mmHg 76%
    03:00 +2°C° 0 mm 1 m/S 747 mmHg 78%
    04:00 +2°C° 0 mm 1 m/S 747 mmHg 79%
    05:00 +2°C° 0 mm 1 m/S 747 mmHg 81%
    06:00 +3°C° 0 mm 1 m/S 747 mmHg 78%
    07:00 +4°C° 0 mm 1 m/S 748 mmHg 75%
    08:00 +3°C° 0 mm 2 m/S 748 mmHg 72%
    09:00 +5°C° 0 mm 2 m/S 748 mmHg 66%
    10:00 +5°C° 0 mm 3 m/S 748 mmHg 60%
    11:00 +7°C° 0 mm 3 m/S 749 mmHg 55%
    12:00 +7°C° 0.3 mm 4 m/S 748 mmHg 53%
    13:00 +7°C° 0.3 mm 4 m/S 748 mmHg 51%
    14:00 +7°C° 0.3 mm 5 m/S 748 mmHg 49%
    15:00 +6°C° 0.2 mm 5 m/S 749 mmHg 53%
    16:00 +5°C° 0.2 mm 5 m/S 749 mmHg 56%
    17:00 +3°C° 0.2 mm 6 m/S 749 mmHg 60%
    18:00 +2°C° 0 mm 5 m/S 749 mmHg 60%
    19:00 +1°C° 0 mm 4 m/S 750 mmHg 61%
    20:00 +1°C° 0 mm 3 m/S 750 mmHg 62%
    21:00 +1°C° 0 mm 3 m/S 750 mmHg 62%
    22:00 0°C° 0 mm 4 m/S 750 mmHg 63%
    23:00 -1°C° 0 mm 4 m/S 750 mmHg 64%

    27 März, Mittwoch

    Zeit Temperatur Niederschläge Wind Luftdruck Luftfeuchtigkeit
    00:00 -1°C° 0 mm 4 m/S 750 mmHg 66%
    01:00 -1°C° 0 mm 4 m/S 750 mmHg 69%
    02:00 -2°C° 0 mm 4 m/S 751 mmHg 71%
    03:00 -2°C° 0 mm 4 m/S 751 mmHg 73%
    04:00 -3°C° 0 mm 4 m/S 751 mmHg 75%
    05:00 -2°C° 0 mm 3 m/S 752 mmHg 77%
    06:00 -2°C° 0 mm 3 m/S 752 mmHg 70%
    07:00 -3°C° 0 mm 4 m/S 753 mmHg 63%
    08:00 -2°C° 0 mm 4 m/S 753 mmHg 55%
    09:00 -1°C° 0 mm 4 m/S 754 mmHg 52%
    10:00 0°C° 0 mm 4 m/S 754 mmHg 49%
    11:00 +2°C° 0 mm 3 m/S 754 mmHg 45%
    12:00 +3°C° 0 mm 3 m/S 755 mmHg 44%
    13:00 +3°C° 0 mm 4 m/S 755 mmHg 43%
    14:00 +4°C° 0 mm 4 m/S 755 mmHg 42%
    15:00 +4°C° 0 mm 4 m/S 755 mmHg 43%
    16:00 +4°C° 0 mm 4 m/S 756 mmHg 44%
    17:00 +4°C° 0 mm 4 m/S 756 mmHg 46%
    18:00 +3°C° 0 mm 3 m/S 756 mmHg 50%
    19:00 +2°C° 0 mm 2 m/S 757 mmHg 55%
    20:00 +1°C° 0 mm 2 m/S 758 mmHg 60%
    21:00 +1°C° 0 mm 2 m/S 758 mmHg 60%
    22:00 -1°C° 0 mm 2 m/S 758 mmHg 61%
    23:00 -1°C° 0 mm 2 m/S 759 mmHg 61%
    Mehr zeigen